Year,Month,Day,Hour,Minute,Value (Times are PST for windgust in km/hr)
2011,07,07,00,00,1.60
2011,07,07,00,01,1.60
2011,07,07,00,02,3.20
2011,07,07,00,03,1.60
2011,07,07,00,04,1.60
2011,07,07,00,05,1.60
2011,07,07,00,06,1.60
2011,07,07,00,07,1.60
2011,07,07,00,08,1.60
2011,07,07,00,09,4.80
2011,07,07,00,10,3.20
2011,07,07,00,28,1.60
2011,07,07,01,44,1.60
2011,07,07,01,45,1.60
2011,07,07,01,55,1.60
2011,07,07,01,56,1.60
2011,07,07,01,57,1.60
2011,07,07,02,50,1.60
2011,07,07,03,06,1.60
2011,07,07,03,07,1.60
2011,07,07,03,08,1.60
2011,07,07,03,36,1.60
2011,07,07,03,37,3.20
2011,07,07,03,38,4.80
2011,07,07,03,39,4.80
2011,07,07,03,40,1.60
2011,07,07,03,41,3.20
2011,07,07,03,42,3.20
2011,07,07,03,43,4.80
2011,07,07,03,44,4.80
2011,07,07,03,45,1.60
2011,07,07,03,47,1.60
2011,07,07,04,21,1.60
2011,07,07,04,22,1.60
2011,07,07,04,23,6.40
2011,07,07,04,24,6.40
2011,07,07,04,25,4.80
2011,07,07,04,36,1.60
2011,07,07,04,38,1.60
2011,07,07,04,39,1.60
2011,07,07,04,40,1.60
2011,07,07,04,41,1.60
2011,07,07,04,42,1.60
2011,07,07,04,46,1.60
2011,07,07,06,38,1.60
2011,07,07,06,39,3.20
2011,07,07,06,40,3.20
2011,07,07,06,49,1.60
2011,07,07,06,50,1.60
2011,07,07,06,51,1.60
2011,07,07,06,53,1.60
2011,07,07,07,10,1.60
2011,07,07,07,11,1.60
2011,07,07,07,12,1.60
2011,07,07,07,54,3.20
2011,07,07,07,55,1.60
2011,07,07,07,56,3.20
2011,07,07,07,57,3.20
2011,07,07,07,58,4.80
2011,07,07,07,59,1.60
2011,07,07,08,00,4.80
2011,07,07,08,01,4.80
2011,07,07,08,02,4.80
2011,07,07,08,03,4.80
2011,07,07,08,04,1.60
2011,07,07,08,05,4.80
2011,07,07,08,06,4.80
2011,07,07,08,07,4.80
2011,07,07,08,08,6.40
2011,07,07,08,09,6.40
2011,07,07,08,10,6.40
2011,07,07,08,11,6.40
2011,07,07,08,12,6.40
2011,07,07,08,13,6.40
2011,07,07,08,14,6.40
2011,07,07,08,15,8.10
2011,07,07,08,16,8.10
2011,07,07,08,17,6.40
2011,07,07,08,18,4.80
2011,07,07,08,19,3.20
2011,07,07,08,20,6.40
2011,07,07,08,21,6.40
2011,07,07,08,22,6.40
2011,07,07,08,23,8.10
2011,07,07,08,24,6.40
2011,07,07,08,25,9.60
2011,07,07,08,26,8.10
2011,07,07,08,27,8.10
2011,07,07,08,28,8.10
2011,07,07,08,29,9.60
2011,07,07,08,30,9.60
2011,07,07,08,31,8.10
2011,07,07,08,32,9.60
2011,07,07,08,33,11.30
2011,07,07,08,34,11.30
2011,07,07,08,35,9.60
2011,07,07,08,36,9.60
2011,07,07,08,37,8.10
2011,07,07,08,38,8.10
2011,07,07,08,39,8.10
2011,07,07,08,40,8.10
2011,07,07,08,41,8.10
2011,07,07,08,42,6.40
2011,07,07,08,43,8.10
2011,07,07,08,44,8.10
2011,07,07,08,45,8.10
2011,07,07,08,46,8.10
2011,07,07,08,47,6.40
2011,07,07,08,48,6.40
2011,07,07,08,49,6.40
2011,07,07,08,50,4.80
2011,07,07,08,51,8.10
2011,07,07,08,52,4.80
2011,07,07,08,53,8.10
2011,07,07,08,54,9.60
2011,07,07,08,55,4.80
2011,07,07,08,56,8.10
2011,07,07,08,57,6.40
2011,07,07,08,58,6.40
2011,07,07,08,59,8.10
2011,07,07,09,00,6.40
2011,07,07,09,01,6.40
2011,07,07,09,02,6.40
2011,07,07,09,03,6.40
2011,07,07,09,04,4.80
2011,07,07,09,05,3.20
2011,07,07,09,06,3.20
2011,07,07,09,07,1.60
2011,07,07,09,08,8.10
2011,07,07,09,09,6.40
2011,07,07,09,10,8.10
2011,07,07,09,11,6.40
2011,07,07,09,12,4.80
2011,07,07,09,13,8.10
2011,07,07,09,14,6.40
2011,07,07,09,15,3.20
2011,07,07,09,16,6.40
2011,07,07,09,17,8.10
2011,07,07,09,18,8.10
2011,07,07,09,19,6.40
2011,07,07,09,20,8.10
2011,07,07,09,21,8.10
2011,07,07,09,22,9.60
2011,07,07,09,23,9.60
2011,07,07,09,24,9.60
2011,07,07,09,25,11.30
2011,07,07,09,26,9.60
2011,07,07,09,27,8.10
2011,07,07,09,28,8.10
2011,07,07,09,29,8.10
2011,07,07,09,30,9.60
2011,07,07,09,31,9.60
2011,07,07,09,32,6.40
2011,07,07,09,33,6.40
2011,07,07,09,34,8.10
2011,07,07,09,35,4.80
2011,07,07,09,36,6.40
2011,07,07,09,37,6.40
2011,07,07,09,38,6.40
2011,07,07,09,39,6.40
2011,07,07,09,40,6.40
2011,07,07,09,41,6.40
2011,07,07,09,42,6.40
2011,07,07,09,43,6.40
2011,07,07,09,44,4.80
2011,07,07,09,45,6.40
2011,07,07,09,46,6.40
2011,07,07,09,47,8.10
2011,07,07,09,48,4.80
2011,07,07,09,49,6.40
2011,07,07,09,50,6.40
2011,07,07,09,51,3.20
2011,07,07,09,52,9.60
2011,07,07,09,53,8.10
2011,07,07,09,54,6.40
2011,07,07,09,55,6.40
2011,07,07,09,56,8.10
2011,07,07,09,57,8.10
2011,07,07,09,58,8.10
2011,07,07,09,59,8.10
2011,07,07,10,00,9.60
2011,07,07,10,01,9.60
2011,07,07,10,02,8.10
2011,07,07,10,03,9.60
2011,07,07,10,04,6.40
2011,07,07,10,05,9.60
2011,07,07,10,06,8.10
2011,07,07,10,07,8.10
2011,07,07,10,08,6.40
2011,07,07,10,09,8.10
2011,07,07,10,10,9.60
2011,07,07,10,11,8.10
2011,07,07,10,12,8.10
2011,07,07,10,13,6.40
2011,07,07,10,14,8.10
2011,07,07,10,15,9.60
2011,07,07,10,16,9.60
2011,07,07,10,17,8.10
2011,07,07,10,18,11.30
2011,07,07,10,19,8.10
2011,07,07,10,20,6.40
2011,07,07,10,21,6.40
2011,07,07,10,22,3.20
2011,07,07,10,23,6.40
2011,07,07,10,24,3.20
2011,07,07,10,25,8.10
2011,07,07,10,26,6.40
2011,07,07,10,27,4.80
2011,07,07,10,28,4.80
2011,07,07,10,29,4.80
2011,07,07,10,30,3.20
2011,07,07,10,31,1.60
2011,07,07,10,32,1.60
2011,07,07,10,33,4.80
2011,07,07,10,34,4.80
2011,07,07,10,35,6.40
2011,07,07,10,36,17.70
2011,07,07,10,37,9.60
2011,07,07,10,38,16.10
2011,07,07,10,39,19.30
2011,07,07,10,40,17.70
2011,07,07,10,41,19.30
2011,07,07,10,42,19.30
2011,07,07,10,43,20.90
2011,07,07,10,44,16.10
2011,07,07,10,45,11.30
2011,07,07,10,46,11.30
2011,07,07,10,47,14.50
2011,07,07,10,48,17.70
2011,07,07,10,49,16.10
2011,07,07,10,50,11.30
2011,07,07,10,51,11.30
2011,07,07,10,52,8.10
2011,07,07,10,53,14.50
2011,07,07,10,54,9.60
2011,07,07,10,55,11.30
2011,07,07,10,56,11.30
2011,07,07,10,57,6.40
2011,07,07,10,58,8.10
2011,07,07,10,59,12.90
2011,07,07,11,00,17.70
2011,07,07,11,01,17.70
2011,07,07,11,02,11.30
2011,07,07,11,03,9.60
2011,07,07,11,04,16.10
2011,07,07,11,05,9.60
2011,07,07,11,06,11.30
2011,07,07,11,07,14.50
2011,07,07,11,08,12.90
2011,07,07,11,09,16.10
2011,07,07,11,10,9.60
2011,07,07,11,11,14.50
2011,07,07,11,12,16.10
2011,07,07,11,13,11.30
2011,07,07,11,14,17.70
2011,07,07,11,15,16.10
2011,07,07,11,16,16.10
2011,07,07,11,17,11.30
2011,07,07,11,18,14.50
2011,07,07,11,19,14.50
2011,07,07,11,20,14.50
2011,07,07,11,21,16.10
2011,07,07,11,22,14.50
2011,07,07,11,23,14.50
2011,07,07,11,24,4.80
2011,07,07,11,25,8.10
2011,07,07,11,26,14.50
2011,07,07,11,27,9.60
2011,07,07,11,28,9.60
2011,07,07,11,29,8.10
2011,07,07,11,30,9.60
2011,07,07,11,31,9.60
2011,07,07,11,32,8.10
2011,07,07,11,33,8.10
2011,07,07,11,34,9.60
2011,07,07,11,35,12.90
2011,07,07,11,36,19.30
2011,07,07,11,37,20.90
2011,07,07,11,38,16.10
2011,07,07,11,39,17.70
2011,07,07,11,40,14.50
2011,07,07,11,41,20.90
2011,07,07,11,42,19.30
2011,07,07,11,43,17.70
2011,07,07,11,44,20.90
2011,07,07,11,45,22.50
2011,07,07,11,46,27.40
2011,07,07,11,47,25.70
2011,07,07,11,48,12.90
2011,07,07,11,49,22.50
2011,07,07,11,50,14.50
2011,07,07,11,51,19.30
2011,07,07,11,52,20.90
2011,07,07,11,53,22.50
2011,07,07,11,54,17.70
2011,07,07,11,55,14.50
2011,07,07,11,56,24.20
2011,07,07,11,57,22.50
2011,07,07,11,58,19.30
2011,07,07,11,59,20.90
2011,07,07,12,00,17.70
2011,07,07,12,01,19.30
2011,07,07,12,02,14.50
2011,07,07,12,03,17.70
2011,07,07,12,04,19.30
2011,07,07,12,05,22.50
2011,07,07,12,06,24.20
2011,07,07,12,07,22.50
2011,07,07,12,08,22.50
2011,07,07,12,09,25.70
2011,07,07,12,10,25.70
2011,07,07,12,11,20.90
2011,07,07,12,12,22.50
2011,07,07,12,13,20.90
2011,07,07,12,14,24.20
2011,07,07,12,15,11.30
2011,07,07,12,16,24.20
2011,07,07,12,17,25.70
2011,07,07,12,18,11.30
2011,07,07,12,19,24.20
2011,07,07,12,20,27.40
2011,07,07,12,21,29.00
2011,07,07,12,22,27.40
2011,07,07,12,23,17.70
2011,07,07,12,24,25.70
2011,07,07,12,25,20.90
2011,07,07,12,26,24.20
2011,07,07,12,27,19.30
2011,07,07,12,28,25.70
2011,07,07,12,29,25.70
2011,07,07,12,30,29.00
2011,07,07,12,31,25.70
2011,07,07,12,32,27.40
2011,07,07,12,33,20.90
2011,07,07,12,34,16.10
2011,07,07,12,35,16.10
2011,07,07,12,36,22.50
2011,07,07,12,37,22.50
2011,07,07,12,38,25.70
2011,07,07,12,39,29.00
2011,07,07,12,40,29.00
2011,07,07,12,41,24.20
2011,07,07,12,42,30.60
2011,07,07,12,43,27.40
2011,07,07,12,44,24.20
2011,07,07,12,45,22.50
2011,07,07,12,46,16.10
2011,07,07,12,47,29.00
2011,07,07,12,48,32.20
2011,07,07,12,49,22.50
2011,07,07,12,50,14.50
2011,07,07,12,51,16.10
2011,07,07,12,52,24.20
2011,07,07,12,53,30.60
2011,07,07,12,54,22.50
2011,07,07,12,55,20.90
2011,07,07,12,56,14.50
2011,07,07,12,57,24.20
2011,07,07,12,58,24.20
2011,07,07,12,59,32.20
2011,07,07,13,00,22.50
2011,07,07,13,01,29.00
2011,07,07,13,02,27.40
2011,07,07,13,03,22.50
2011,07,07,13,04,27.40
2011,07,07,13,05,22.50
2011,07,07,13,06,25.70
2011,07,07,13,07,22.50
2011,07,07,13,08,29.00
2011,07,07,13,09,29.00
2011,07,07,13,10,27.40
2011,07,07,13,11,19.30
2011,07,07,13,12,22.50
2011,07,07,13,13,29.00
2011,07,07,13,14,24.20
2011,07,07,13,15,27.40
2011,07,07,13,16,20.90
2011,07,07,13,17,20.90
2011,07,07,13,18,16.10
2011,07,07,13,19,19.30
2011,07,07,13,20,19.30
2011,07,07,13,21,24.20
2011,07,07,13,22,24.20
2011,07,07,13,23,20.90
2011,07,07,13,24,30.60
2011,07,07,13,25,24.20
2011,07,07,13,26,22.50
2011,07,07,13,27,22.50
2011,07,07,13,28,20.90
2011,07,07,13,29,22.50
2011,07,07,13,30,27.40
2011,07,07,13,31,22.50
2011,07,07,13,32,27.40
2011,07,07,13,33,24.20
2011,07,07,13,34,25.70
2011,07,07,13,35,14.50
2011,07,07,13,36,24.20
2011,07,07,13,37,25.70
2011,07,07,13,38,22.50
2011,07,07,13,39,19.30
2011,07,07,13,40,30.60
2011,07,07,13,41,30.60
2011,07,07,13,42,22.50
2011,07,07,13,43,27.40
2011,07,07,13,44,22.50
2011,07,07,13,45,29.00
2011,07,07,13,46,29.00
2011,07,07,13,47,24.20
2011,07,07,13,48,24.20
2011,07,07,13,49,24.20
2011,07,07,13,50,17.70
2011,07,07,13,51,24.20
2011,07,07,13,52,25.70
2011,07,07,13,53,32.20
2011,07,07,13,54,22.50
2011,07,07,13,55,24.20
2011,07,07,13,56,29.00
2011,07,07,13,57,19.30
2011,07,07,13,58,30.60
2011,07,07,13,59,22.50
2011,07,07,14,00,33.80
2011,07,07,14,01,19.30
2011,07,07,14,02,24.20
2011,07,07,14,03,25.70
2011,07,07,14,04,38.60
2011,07,07,14,05,22.50
2011,07,07,14,06,24.20
2011,07,07,14,07,24.20
2011,07,07,14,08,19.30
2011,07,07,14,09,22.50
2011,07,07,14,10,29.00
2011,07,07,14,11,20.90
2011,07,07,14,12,17.70
2011,07,07,14,13,27.40
2011,07,07,14,14,37.00
2011,07,07,14,15,29.00
2011,07,07,14,16,30.60
2011,07,07,14,17,30.60
2011,07,07,14,18,25.70
2011,07,07,14,19,33.80
2011,07,07,14,20,30.60
2011,07,07,14,21,30.60
2011,07,07,14,22,32.20
2011,07,07,14,23,24.20
2011,07,07,14,24,20.90
2011,07,07,14,25,29.00
2011,07,07,14,26,27.40
2011,07,07,14,27,22.50
2011,07,07,14,28,24.20
2011,07,07,14,29,30.60
2011,07,07,14,30,29.00
2011,07,07,14,31,27.40
2011,07,07,14,32,27.40
2011,07,07,14,33,25.70
2011,07,07,14,34,29.00
2011,07,07,14,35,38.60
2011,07,07,14,36,32.20
2011,07,07,14,37,29.00
2011,07,07,14,38,29.00
2011,07,07,14,39,29.00
2011,07,07,14,40,33.80
2011,07,07,14,41,32.20
2011,07,07,14,42,25.70
2011,07,07,14,43,25.70
2011,07,07,14,44,22.50
2011,07,07,14,45,25.70
2011,07,07,14,46,22.50
2011,07,07,14,47,27.40
2011,07,07,14,48,33.80
2011,07,07,14,49,22.50
2011,07,07,14,50,33.80
2011,07,07,14,51,32.20
2011,07,07,14,52,29.00
2011,07,07,14,53,35.40
2011,07,07,14,54,27.40
2011,07,07,14,55,22.50
2011,07,07,14,56,27.40
2011,07,07,14,57,29.00
2011,07,07,14,58,37.00
2011,07,07,14,59,32.20
2011,07,07,15,00,32.20
2011,07,07,15,01,37.00
2011,07,07,15,02,29.00
2011,07,07,15,03,32.20
2011,07,07,15,04,37.00
2011,07,07,15,05,32.20
2011,07,07,15,06,22.50
2011,07,07,15,07,37.00
2011,07,07,15,08,35.40
2011,07,07,15,09,40.20
2011,07,07,15,10,29.00
2011,07,07,15,11,29.00
2011,07,07,15,12,32.20
2011,07,07,15,13,29.00
2011,07,07,15,14,19.30
2011,07,07,15,15,24.20
2011,07,07,15,16,32.20
2011,07,07,15,17,27.40
2011,07,07,15,18,22.50
2011,07,07,15,19,40.20
2011,07,07,15,20,32.20
2011,07,07,15,21,25.70
2011,07,07,15,22,24.20
2011,07,07,15,23,35.40
2011,07,07,15,24,20.90
2011,07,07,15,25,25.70
2011,07,07,15,26,24.20
2011,07,07,15,27,25.70
2011,07,07,15,28,22.50
2011,07,07,15,29,30.60
2011,07,07,15,30,25.70
2011,07,07,15,31,27.40
2011,07,07,15,32,25.70
2011,07,07,15,33,27.40
2011,07,07,15,34,25.70
2011,07,07,15,35,33.80
2011,07,07,15,36,32.20
2011,07,07,15,37,30.60
2011,07,07,15,38,35.40
2011,07,07,15,39,25.70
2011,07,07,15,40,25.70
2011,07,07,15,41,22.50
2011,07,07,15,42,27.40
2011,07,07,15,43,33.80
2011,07,07,15,44,22.50
2011,07,07,15,45,25.70
2011,07,07,15,46,27.40
2011,07,07,15,47,22.50
2011,07,07,15,48,22.50
2011,07,07,15,49,24.20
2011,07,07,15,50,19.30
2011,07,07,15,51,29.00
2011,07,07,15,52,22.50
2011,07,07,15,53,20.90
2011,07,07,15,54,25.70
2011,07,07,15,55,25.70
2011,07,07,15,56,20.90
2011,07,07,15,57,32.20
2011,07,07,15,58,32.20
2011,07,07,15,59,22.50
2011,07,07,16,00,20.90
2011,07,07,16,01,20.90
2011,07,07,16,02,22.50
2011,07,07,16,03,24.20
2011,07,07,16,04,32.20
2011,07,07,16,05,33.80
2011,07,07,16,06,29.00
2011,07,07,16,07,19.30
2011,07,07,16,08,25.70
2011,07,07,16,09,30.60
2011,07,07,16,10,41.80
2011,07,07,16,11,32.20
2011,07,07,16,12,22.50
2011,07,07,16,13,33.80
2011,07,07,16,14,27.40
2011,07,07,16,15,32.20
2011,07,07,16,16,40.20
2011,07,07,16,17,33.80
2011,07,07,16,18,33.80
2011,07,07,16,19,29.00
2011,07,07,16,20,29.00
2011,07,07,16,21,32.20
2011,07,07,16,22,30.60
2011,07,07,16,23,30.60
2011,07,07,16,24,43.50
2011,07,07,16,25,32.20
2011,07,07,16,26,33.80
2011,07,07,16,27,33.80
2011,07,07,16,28,32.20
2011,07,07,16,29,29.00
2011,07,07,16,30,25.70
2011,07,07,16,31,32.20
2011,07,07,16,32,30.60
2011,07,07,16,33,33.80
2011,07,07,16,34,29.00
2011,07,07,16,35,35.40
2011,07,07,16,36,32.20
2011,07,07,16,37,30.60
2011,07,07,16,38,33.80
2011,07,07,16,39,30.60
2011,07,07,16,40,32.20
2011,07,07,16,41,32.20
2011,07,07,16,42,20.90
2011,07,07,16,43,20.90
2011,07,07,16,44,25.70
2011,07,07,16,45,29.00
2011,07,07,16,46,29.00
2011,07,07,16,47,32.20
2011,07,07,16,48,22.50
2011,07,07,16,49,24.20
2011,07,07,16,50,25.70
2011,07,07,16,51,33.80
2011,07,07,16,52,20.90
2011,07,07,16,53,22.50
2011,07,07,16,54,20.90
2011,07,07,16,55,30.60
2011,07,07,16,56,32.20
2011,07,07,16,57,27.40
2011,07,07,16,58,20.90
2011,07,07,16,59,29.00
2011,07,07,17,00,30.60
2011,07,07,17,01,25.70
2011,07,07,17,02,25.70
2011,07,07,17,03,25.70
2011,07,07,17,04,22.50
2011,07,07,17,05,24.20
2011,07,07,17,06,27.40
2011,07,07,17,07,33.80
2011,07,07,17,08,22.50
2011,07,07,17,09,20.90
2011,07,07,17,10,24.20
2011,07,07,17,11,27.40
2011,07,07,17,12,17.70
2011,07,07,17,13,24.20
2011,07,07,17,14,22.50
2011,07,07,17,15,29.00
2011,07,07,17,16,22.50
2011,07,07,17,17,29.00
2011,07,07,17,18,32.20
2011,07,07,17,19,25.70
2011,07,07,17,20,29.00
2011,07,07,17,21,27.40
2011,07,07,17,22,33.80
2011,07,07,17,23,29.00
2011,07,07,17,24,27.40
2011,07,07,17,25,22.50
2011,07,07,17,26,22.50
2011,07,07,17,27,24.20
2011,07,07,17,28,16.10
2011,07,07,17,29,24.20
2011,07,07,17,30,30.60
2011,07,07,17,31,30.60
2011,07,07,17,32,32.20
2011,07,07,17,33,32.20
2011,07,07,17,34,19.30
2011,07,07,17,35,33.80
2011,07,07,17,36,29.00
2011,07,07,17,37,37.00
2011,07,07,17,38,22.50
2011,07,07,17,39,32.20
2011,07,07,17,40,35.40
2011,07,07,17,41,33.80
2011,07,07,17,42,25.70
2011,07,07,17,43,32.20
2011,07,07,17,44,30.60
2011,07,07,17,45,27.40
2011,07,07,17,46,30.60
2011,07,07,17,47,30.60
2011,07,07,17,48,29.00
2011,07,07,17,49,37.00
2011,07,07,17,50,29.00
2011,07,07,17,51,24.20
2011,07,07,17,52,24.20
2011,07,07,17,53,30.60
2011,07,07,17,54,24.20
2011,07,07,17,55,19.30
2011,07,07,17,56,24.20
2011,07,07,17,57,33.80
2011,07,07,17,58,33.80
2011,07,07,17,59,38.60
2011,07,07,18,00,30.60
2011,07,07,18,01,25.70
2011,07,07,18,02,27.40
2011,07,07,18,03,38.60
2011,07,07,18,04,25.70
2011,07,07,18,05,37.00
2011,07,07,18,06,35.40
2011,07,07,18,07,35.40
2011,07,07,18,08,33.80
2011,07,07,18,09,33.80
2011,07,07,18,10,33.80
2011,07,07,18,11,37.00
2011,07,07,18,12,38.60
2011,07,07,18,13,30.60
2011,07,07,18,14,35.40
2011,07,07,18,15,27.40
2011,07,07,18,16,32.20
2011,07,07,18,17,35.40
2011,07,07,18,18,37.00
2011,07,07,18,19,40.20
2011,07,07,18,20,22.50
2011,07,07,18,21,29.00
2011,07,07,18,22,30.60
2011,07,07,18,23,35.40
2011,07,07,18,24,27.40
2011,07,07,18,25,24.20
2011,07,07,18,26,27.40
2011,07,07,18,27,22.50
2011,07,07,18,28,32.20
2011,07,07,18,29,49.90
2011,07,07,18,30,30.60
2011,07,07,18,31,30.60
2011,07,07,18,32,22.50
2011,07,07,18,33,27.40
2011,07,07,18,34,32.20
2011,07,07,18,35,16.10
2011,07,07,18,36,22.50
2011,07,07,18,37,25.70
2011,07,07,18,38,35.40
2011,07,07,18,39,33.80
2011,07,07,18,40,37.00
2011,07,07,18,41,35.40
2011,07,07,18,42,45.10
2011,07,07,18,43,43.50
2011,07,07,18,44,32.20
2011,07,07,18,45,35.40
2011,07,07,18,46,27.40
2011,07,07,18,47,30.60
2011,07,07,18,48,22.50
2011,07,07,18,49,27.40
2011,07,07,18,50,27.40
2011,07,07,18,51,30.60
2011,07,07,18,52,32.20
2011,07,07,18,53,32.20
2011,07,07,18,54,38.60
2011,07,07,18,55,30.60
2011,07,07,18,56,27.40
2011,07,07,18,57,29.00
2011,07,07,18,58,30.60
2011,07,07,18,59,41.80
2011,07,07,19,00,35.40
2011,07,07,19,01,41.80
2011,07,07,19,02,32.20
2011,07,07,19,03,30.60
2011,07,07,19,04,37.00
2011,07,07,19,05,33.80
2011,07,07,19,06,40.20
2011,07,07,19,07,24.20
2011,07,07,19,08,20.90
2011,07,07,19,09,43.50
2011,07,07,19,10,38.60
2011,07,07,19,11,27.40
2011,07,07,19,12,37.00
2011,07,07,19,13,33.80
2011,07,07,19,14,19.30
2011,07,07,19,15,32.20
2011,07,07,19,16,33.80
2011,07,07,19,17,29.00
2011,07,07,19,18,37.00
2011,07,07,19,19,33.80
2011,07,07,19,20,35.40
2011,07,07,19,21,29.00
2011,07,07,19,22,37.00
2011,07,07,19,23,25.70
2011,07,07,19,24,32.20
2011,07,07,19,25,40.20
2011,07,07,19,26,32.20
2011,07,07,19,27,33.80
2011,07,07,19,28,30.60
2011,07,07,19,29,25.70
2011,07,07,19,30,38.60
2011,07,07,19,31,37.00
2011,07,07,19,32,35.40
2011,07,07,19,33,20.90
2011,07,07,19,34,43.50
2011,07,07,19,35,32.20
2011,07,07,19,36,20.90
2011,07,07,19,37,17.70
2011,07,07,19,38,22.50
2011,07,07,19,39,46.70
2011,07,07,19,40,27.40
2011,07,07,19,41,25.70
2011,07,07,19,42,32.20
2011,07,07,19,43,22.50
2011,07,07,19,44,33.80
2011,07,07,19,45,32.20
2011,07,07,19,46,32.20
2011,07,07,19,47,22.50
2011,07,07,19,48,17.70
2011,07,07,19,49,41.80
2011,07,07,19,50,32.20
2011,07,07,19,51,33.80
2011,07,07,19,52,41.80
2011,07,07,19,53,30.60
2011,07,07,19,54,35.40
2011,07,07,19,55,25.70
2011,07,07,19,56,37.00
2011,07,07,19,57,19.30
2011,07,07,19,58,22.50
2011,07,07,19,59,43.50
2011,07,07,20,00,17.70
2011,07,07,20,01,24.20
2011,07,07,20,02,33.80
2011,07,07,20,03,32.20
2011,07,07,20,04,33.80
2011,07,07,20,05,33.80
2011,07,07,20,06,43.50
2011,07,07,20,07,27.40
2011,07,07,20,08,29.00
2011,07,07,20,09,16.10
2011,07,07,20,10,25.70
2011,07,07,20,11,32.20
2011,07,07,20,12,33.80
2011,07,07,20,13,29.00
2011,07,07,20,14,37.00
2011,07,07,20,15,35.40
2011,07,07,20,16,33.80
2011,07,07,20,17,24.20
2011,07,07,20,18,33.80
2011,07,07,20,19,35.40
2011,07,07,20,20,30.60
2011,07,07,20,21,27.40
2011,07,07,20,22,32.20
2011,07,07,20,23,30.60
2011,07,07,20,24,16.10
2011,07,07,20,25,32.20
2011,07,07,20,26,25.70
2011,07,07,20,27,27.40
2011,07,07,20,28,22.50
2011,07,07,20,29,19.30
2011,07,07,20,30,41.80
2011,07,07,20,31,24.20
2011,07,07,20,32,19.30
2011,07,07,20,33,19.30
2011,07,07,20,34,17.70
2011,07,07,20,35,24.20
2011,07,07,20,36,19.30
2011,07,07,20,37,17.70
2011,07,07,20,38,17.70
2011,07,07,20,39,38.60
2011,07,07,20,40,46.70
2011,07,07,20,41,19.30
2011,07,07,20,42,22.50
2011,07,07,20,43,14.50
2011,07,07,20,44,12.90
2011,07,07,20,45,17.70
2011,07,07,20,46,30.60
2011,07,07,20,47,27.40
2011,07,07,20,48,38.60
2011,07,07,20,49,25.70
2011,07,07,20,50,25.70
2011,07,07,20,51,32.20
2011,07,07,20,52,24.20
2011,07,07,20,53,24.20
2011,07,07,20,54,20.90
2011,07,07,20,55,30.60
2011,07,07,20,56,35.40
2011,07,07,20,57,48.30
2011,07,07,20,58,32.20
2011,07,07,20,59,35.40
2011,07,07,21,00,22.50
2011,07,07,21,01,27.40
2011,07,07,21,02,17.70
2011,07,07,21,03,30.60
2011,07,07,21,04,41.80
2011,07,07,21,05,40.20
2011,07,07,21,06,25.70
2011,07,07,21,07,19.30
2011,07,07,21,08,32.20
2011,07,07,21,09,35.40
2011,07,07,21,10,45.10
2011,07,07,21,11,38.60
2011,07,07,21,12,29.00
2011,07,07,21,13,17.70
2011,07,07,21,14,30.60
2011,07,07,21,15,16.10
2011,07,07,21,16,19.30
2011,07,07,21,17,20.90
2011,07,07,21,18,12.90
2011,07,07,21,19,17.70
2011,07,07,21,20,24.20
2011,07,07,21,21,20.90
2011,07,07,21,22,30.60
2011,07,07,21,23,29.00
2011,07,07,21,24,38.60
2011,07,07,21,25,22.50
2011,07,07,21,26,33.80
2011,07,07,21,27,33.80
2011,07,07,21,28,24.20
2011,07,07,21,29,22.50
2011,07,07,21,30,24.20
2011,07,07,21,31,24.20
2011,07,07,21,32,17.70
2011,07,07,21,33,32.20
2011,07,07,21,34,32.20
2011,07,07,21,35,27.40
2011,07,07,21,36,27.40
2011,07,07,21,37,32.20
2011,07,07,21,38,29.00
2011,07,07,21,39,24.20
2011,07,07,21,40,37.00
2011,07,07,21,41,30.60
2011,07,07,21,42,32.20
2011,07,07,21,43,35.40
2011,07,07,21,44,32.20
2011,07,07,21,45,32.20
2011,07,07,21,46,29.00
2011,07,07,21,47,32.20
2011,07,07,21,48,30.60
2011,07,07,21,49,33.80
2011,07,07,21,50,33.80
2011,07,07,21,51,33.80
2011,07,07,21,52,29.00
2011,07,07,21,53,27.40
2011,07,07,21,54,29.00
2011,07,07,21,55,30.60
2011,07,07,21,56,27.40
2011,07,07,21,57,25.70
2011,07,07,21,58,30.60
2011,07,07,21,59,29.00
2011,07,07,22,00,24.20
2011,07,07,22,01,32.20
2011,07,07,22,02,27.40
2011,07,07,22,03,24.20
2011,07,07,22,04,27.40
2011,07,07,22,05,22.50
2011,07,07,22,06,24.20
2011,07,07,22,07,29.00
2011,07,07,22,08,17.70
2011,07,07,22,09,20.90
2011,07,07,22,10,20.90
2011,07,07,22,11,17.70
2011,07,07,22,12,16.10
2011,07,07,22,13,17.70
2011,07,07,22,14,17.70
2011,07,07,22,15,17.70
2011,07,07,22,16,20.90
2011,07,07,22,17,11.30
2011,07,07,22,18,11.30
2011,07,07,22,19,20.90
2011,07,07,22,20,16.10
2011,07,07,22,21,16.10
2011,07,07,22,22,11.30
2011,07,07,22,23,24.20
2011,07,07,22,24,22.50
2011,07,07,22,25,16.10
2011,07,07,22,26,30.60
2011,07,07,22,27,29.00
2011,07,07,22,28,27.40
2011,07,07,22,29,33.80
2011,07,07,22,30,27.40
2011,07,07,22,31,25.70
2011,07,07,22,32,24.20
2011,07,07,22,33,20.90
2011,07,07,22,34,20.90
2011,07,07,22,35,27.40
2011,07,07,22,36,25.70
2011,07,07,22,37,22.50
2011,07,07,22,38,22.50
2011,07,07,22,39,9.60
2011,07,07,22,40,19.30
2011,07,07,22,41,30.60
2011,07,07,22,42,20.90
2011,07,07,22,43,19.30
2011,07,07,22,44,12.90
2011,07,07,22,45,22.50
2011,07,07,22,46,24.20
2011,07,07,22,47,27.40
2011,07,07,22,48,17.70
2011,07,07,22,49,29.00
2011,07,07,22,50,27.40
2011,07,07,22,51,25.70
2011,07,07,22,52,22.50
2011,07,07,22,53,37.00
2011,07,07,22,54,37.00
2011,07,07,22,55,24.20
2011,07,07,22,56,33.80
2011,07,07,22,57,33.80
2011,07,07,22,58,25.70
2011,07,07,22,59,25.70
2011,07,07,23,00,27.40
2011,07,07,23,01,16.10
2011,07,07,23,02,25.70
2011,07,07,23,03,24.20
2011,07,07,23,04,33.80
2011,07,07,23,05,25.70
2011,07,07,23,06,32.20
2011,07,07,23,07,25.70
2011,07,07,23,08,24.20
2011,07,07,23,09,32.20
2011,07,07,23,10,25.70
2011,07,07,23,11,25.70
2011,07,07,23,12,24.20
2011,07,07,23,13,25.70
2011,07,07,23,14,27.40
2011,07,07,23,15,16.10
2011,07,07,23,16,24.20
2011,07,07,23,17,30.60
2011,07,07,23,18,24.20
2011,07,07,23,19,11.30
2011,07,07,23,20,22.50
2011,07,07,23,21,25.70
2011,07,07,23,22,22.50
2011,07,07,23,23,25.70
2011,07,07,23,24,22.50
2011,07,07,23,25,32.20
2011,07,07,23,26,17.70
2011,07,07,23,27,20.90
2011,07,07,23,28,17.70
2011,07,07,23,29,27.40
2011,07,07,23,30,19.30
2011,07,07,23,31,24.20
2011,07,07,23,32,29.00
2011,07,07,23,33,27.40
2011,07,07,23,34,22.50
2011,07,07,23,35,19.30
2011,07,07,23,36,20.90
2011,07,07,23,37,16.10
2011,07,07,23,38,19.30
2011,07,07,23,39,22.50
2011,07,07,23,40,20.90
2011,07,07,23,41,22.50
2011,07,07,23,42,19.30
2011,07,07,23,43,29.00
2011,07,07,23,44,22.50
2011,07,07,23,45,16.10
2011,07,07,23,46,12.90
2011,07,07,23,47,30.60
2011,07,07,23,48,25.70
2011,07,07,23,49,33.80
2011,07,07,23,50,25.70
2011,07,07,23,51,29.00
2011,07,07,23,52,20.90
2011,07,07,23,53,16.10
2011,07,07,23,54,17.70
2011,07,07,23,55,14.50
2011,07,07,23,56,24.20
2011,07,07,23,57,24.20
2011,07,07,23,58,20.90
2011,07,07,23,59,19.30
